TimePST,TemperatureF,Dew PointF,Humidity,Sea Level PressureIn,VisibilityMPH,Wind Direction,Wind SpeedMPH,Gust SpeedMPH,PrecipitationIn,Events,Conditions,WindDirDegrees,DateUTC
12:55 AM,35.1,27.0,72,30.08,10.0,West,9.2,-,N/A,,Mostly Cloudy,280,2013-02-17 08:55:00
1:55 AM,28.9,25.0,85,30.09,10.0,West,8.1,-,N/A,,Clear,280,2013-02-17 09:55:00
2:55 AM,28.0,23.0,81,30.08,10.0,Calm,Calm,-,N/A,,Clear,0,2013-02-17 10:55:00
3:55 AM,24.1,19.9,84,30.09,10.0,Calm,Calm,-,N/A,,Clear,0,2013-02-17 11:55:00
4:55 AM,24.1,19.9,84,30.11,10.0,West,6.9,-,N/A,,Unknown,260,2013-02-17 12:55:00
5:55 AM,21.9,18.0,85,30.16,10.0,Calm,Calm,-,N/A,,Clear,0,2013-02-17 13:55:00
6:55 AM,21.9,17.1,82,30.16,10.0,Calm,Calm,-,N/A,,Clear,0,2013-02-17 14:55:00
7:55 AM,25.0,19.9,81,30.17,10.0,Calm,Calm,-,N/A,,Clear,0,2013-02-17 15:55:00
8:55 AM,30.0,21.0,69,30.18,10.0,Calm,Calm,-,N/A,,Clear,0,2013-02-17 16:55:00
9:55 AM,34.0,21.0,59,30.15,10.0,Calm,Calm,-,N/A,,Clear,0,2013-02-17 17:55:00
11:55 AM,37.9,15.1,39,30.12,10.0,Calm,Calm,-,N/A,,Clear,0,2013-02-17 19:55:00
12:55 PM,39.9,12.9,33,30.09,10.0,Calm,Calm,-,N/A,,Clear,0,2013-02-17 20:55:00
1:55 PM,42.1,10.9,28,30.07,10.0,Calm,Calm,-,N/A,,Clear,0,2013-02-17 21:55:00
2:55 PM,43.0,15.1,32,30.07,10.0,West,4.6,-,N/A,,Clear,260,2013-02-17 22:55:00
3:55 PM,43.0,15.1,32,30.07,10.0,Calm,Calm,-,N/A,,Clear,0,2013-02-17 23:55:00
4:55 PM,41.0,12.9,32,30.07,10.0,NNW,3.5,-,N/A,,Clear,330,2013-02-18 00:55:00
5:55 PM,35.1,14.0,42,30.09,10.0,North,3.5,-,N/A,,Clear,350,2013-02-18 01:55:00
7:55 PM,27.0,16.0,63,30.11,10.0,ESE,3.5,-,N/A,,Clear,110,2013-02-18 03:55:00
8:55 PM,25.0,18.0,75,30.11,10.0,Calm,Calm,-,N/A,,Clear,0,2013-02-18 04:55:00
9:55 PM,25.0,19.0,78,30.10,5.0,Calm,Calm,-,N/A,,Haze,0,2013-02-18 05:55:00
10:55 PM,21.9,18.0,85,30.03,8.0,Calm,Calm,-,N/A,,Clear,0,2013-02-18 06:55:00
11:55 PM,21.0,17.1,85,30.08,4.0,Calm,Calm,-,N/A,,Clear,0,2013-02-18 07:55:00